Monroe, MI

12:13 PM EST on January 23, 2017 (GMT -0500)
Custer

Weather History for KTTF - February, 2014

Change the Weather History Date:

Sunday, February 16, 2014

  Actual Average Record
Temperature  
Mean Temperature 14 °F -  
Max Temperature 26 °F 33 °F 66 °F (1954)
Min Temperature 3 °F 19 °F -14 °F (2015)
Degree Days  
Heating Degree Days 50    
Moisture  
Dew Point 11 °F    
Average Humidity 81    
Maximum Humidity 93    
Minimum Humidity 55    
Precipitation  
Precipitation 0.00 in - - ()
Sea Level Pressure  
Sea Level Pressure 30.08 in    
Wind  
Wind Speed 0 mph (North)    
Max Wind Speed 13 mph    
Max Gust Speed -    
Visibility 7 miles    
Events Snow    
Averages and records for this station are not official NWS values.
T = Trace of Precipitation, MM = Missing Value Source: NWS Daily Summary

Daily Weather History Graph

Daily Weather History Graph

Search for Another Location

Airport or City:

Trip Planner

Search our weather history database for the weather conditions in past years. The results will help you decide how hot, cold, wet, or windy it might be!

Date:

Astronomy

Feb. 16, 2014 Rise Set
Actual Time 7:28 AM EST 6:08 PM EST
Civil Twilight 6:59 AM EST 6:36 PM EST
Nautical Twilight 6:26 AM EST 7:09 PM EST
Astronomical Twilight 5:54 AM EST 7:41 PM EST
Moon 8:06 PM EST (2/16) 7:55 AM EST (2/16)
Length of Visible Light 11h 37m
Length of Day
10h 39m
Full, 97% of the Moon is Illuminated
Feb 16
Full
Feb 22
Last Quarter
Mar 1
New
Mar 8
First Quarter
Mar 16
Full

Hourly Weather History & Observations

Time (EST) Temp. Windchill Dew Point Humidity Pressure Visibility Wind Dir Wind Speed Gust Speed Precip Events Conditions
12:16 AM 6.8 °F - 3.2 °F 85% 30.02 in 5.0 mi Calm Calm - N/A   Clear
12:36 AM 3.2 °F - 1.4 °F 92% 30.01 in 5.0 mi Calm Calm - N/A   Clear
12:56 AM 5.0 °F - 1.4 °F 85% 30.01 in 5.0 mi Calm Calm - N/A   Clear
1:16 AM 5.0 °F - 1.4 °F 85% 30.01 in 7.0 mi Calm Calm - N/A   Clear
1:32 AM 6.8 °F - 3.2 °F 85% 30.00 in 7.0 mi Calm Calm - N/A   Clear
1:52 AM 6.8 °F - 3.2 °F 85% 29.99 in 7.0 mi Calm Calm - N/A   Mostly Cloudy
2:12 AM 5.0 °F - 1.4 °F 85% 29.99 in 7.0 mi Calm Calm - N/A   Scattered Clouds
2:32 AM 8.6 °F - 5.0 °F 85% 29.99 in 7.0 mi Calm Calm - N/A   Mostly Cloudy
2:52 AM 8.6 °F - 5.0 °F 85% 29.99 in 7.0 mi Calm Calm - N/A   Overcast
3:12 AM 8.6 °F - 6.8 °F 92% 29.98 in 7.0 mi Calm Calm - N/A   Overcast
3:32 AM 10.4 °F - 6.8 °F 85% 29.97 in 7.0 mi Calm Calm - N/A   Overcast
3:52 AM 10.4 °F - 8.6 °F 92% 29.97 in 7.0 mi Calm Calm - N/A   Overcast
4:12 AM 10.4 °F - 8.6 °F 92% 29.95 in 7.0 mi Calm Calm - N/A   Overcast
4:33 AM 12.2 °F - 10.4 °F 92% 29.94 in 7.0 mi Calm Calm - N/A   Overcast
4:53 AM 12.2 °F - 10.4 °F 92% 29.94 in 7.0 mi Calm Calm - N/A   Overcast
5:13 AM 12.2 °F - 10.4 °F 92% 29.94 in 7.0 mi Calm Calm - N/A   Overcast
5:33 AM 12.2 °F - 10.4 °F 92% 29.94 in 7.0 mi Calm Calm - N/A   Overcast
5:53 AM 12.2 °F - 10.4 °F 92% 29.94 in 7.0 mi Calm Calm - N/A   Overcast
6:13 AM 14.0 °F - 12.2 °F 93% 29.93 in 5.0 mi Calm Calm - N/A Snow Light Snow
6:33 AM 14.0 °F - 12.2 °F 93% 29.92 in 7.0 mi Calm Calm - N/A   Overcast
6:53 AM 14.0 °F - 12.2 °F 93% 29.93 in 7.0 mi Calm Calm - N/A   Overcast
7:13 AM 15.8 °F - 12.2 °F 86% 29.93 in 7.0 mi Calm Calm - N/A   Overcast
7:33 AM 15.8 °F - 12.2 °F 86% 29.95 in 2.5 mi Calm Calm - N/A Snow Light Snow
7:54 AM 15.8 °F - 12.2 °F 86% 29.96 in 1.0 mi Calm Calm - N/A Snow Light Snow
8:14 AM 15.8 °F - 12.2 °F 86% 29.97 in 1.2 mi Calm Calm - N/A Snow Light Snow
8:34 AM 14.0 °F - 12.2 °F 93% 29.97 in 0.8 mi Calm Calm - N/A Snow Light Snow
8:54 AM 15.8 °F - 12.2 °F 86% 29.97 in 1.2 mi Calm Calm - N/A Snow Light Snow
9:14 AM 15.8 °F - 12.2 °F 86% 29.98 in 1.5 mi Calm Calm - N/A Snow Light Snow
9:34 AM 15.8 °F - 12.2 °F 86% 29.98 in 1.0 mi Calm Calm - N/A Snow Light Snow
9:54 AM 15.8 °F - 12.2 °F 86% 29.99 in 0.8 mi Calm Calm - N/A Snow Light Snow
10:14 AM 15.8 °F - 12.2 °F 86% 29.99 in 0.8 mi Calm Calm - N/A Snow Light Snow
10:34 AM 17.6 °F - 14.0 °F 86% 30.00 in 1.0 mi Calm Calm - N/A Snow Light Snow
10:54 AM 17.6 °F - 15.8 °F 93% 30.01 in 1.0 mi Calm Calm - N/A Snow Light Snow
11:15 AM 19.4 °F - 15.8 °F 86% 30.01 in 1.8 mi Calm Calm - N/A Snow Light Snow
11:35 AM 19.4 °F - 15.8 °F 86% 30.02 in 2.5 mi Calm Calm - N/A Snow Light Snow
11:55 AM 19.4 °F - 15.8 °F 86% 30.02 in 4.0 mi Calm Calm - N/A   Haze
12:15 PM 19.4 °F - 15.8 °F 86% 30.02 in 5.0 mi Calm Calm - N/A   Haze
12:35 PM 21.2 °F - 15.8 °F 80% 30.02 in 7.0 mi Calm Calm - N/A   Scattered Clouds
12:55 PM 21.2 °F - 15.8 °F 80% 30.02 in 10.0 mi Calm Calm - N/A   Clear
1:15 PM 23.0 °F - 15.8 °F 74% 30.02 in 10.0 mi Calm Calm - N/A   Clear
1:35 PM 24.8 °F - 15.8 °F 69% 30.03 in 10.0 mi Calm Calm - N/A   Clear
1:55 PM 24.8 °F - 14.0 °F 64% 30.03 in 10.0 mi Calm Calm - N/A   Scattered Clouds
2:16 PM 24.8 °F - 14.0 °F 64% 30.04 in 10.0 mi Calm Calm - N/A   Scattered Clouds
2:36 PM 24.8 °F - 14.0 °F 64% 30.05 in 10.0 mi Calm Calm - N/A   Scattered Clouds
2:56 PM 24.8 °F 16.9 °F 14.0 °F 64% 30.06 in 10.0 mi North 6.9 mph - N/A   Scattered Clouds
3:16 PM 26.6 °F - 12.2 °F 55% 30.07 in 10.0 mi Calm Calm - N/A   Mostly Cloudy
3:36 PM 24.8 °F - 14.0 °F 64% 30.09 in 10.0 mi Calm Calm - N/A   Overcast
3:56 PM 24.8 °F 13.4 °F 14.0 °F 64% 30.11 in 10.0 mi NNW 12.7 mph - N/A   Overcast
4:16 PM 26.6 °F - 14.0 °F 59% 30.12 in 10.0 mi Calm Calm - N/A   Overcast
4:36 PM 26.6 °F - 14.0 °F 59% 30.12 in 10.0 mi Calm Calm - N/A   Overcast
4:56 PM 24.8 °F 15.3 °F 15.8 °F 69% 30.14 in 10.0 mi North 9.2 mph - N/A   Overcast
5:16 PM 23.0 °F - 14.0 °F 68% 30.15 in 10.0 mi Calm Calm - N/A   Mostly Cloudy
5:32 PM 23.0 °F - 12.2 °F 63% 30.17 in 10.0 mi Calm Calm - N/A   Mostly Cloudy
5:52 PM 23.0 °F - 12.2 °F 63% 30.19 in 10.0 mi Calm Calm - N/A   Scattered Clouds
6:12 PM 19.4 °F - 12.2 °F 74% 30.20 in 10.0 mi Calm Calm - N/A   Mostly Cloudy
6:32 PM 19.4 °F - 10.4 °F 68% 30.22 in 10.0 mi Calm Calm - N/A   Mostly Cloudy
6:52 PM 19.4 °F - 12.2 °F 74% 30.23 in 10.0 mi Calm Calm - N/A   Scattered Clouds
7:12 PM 21.2 °F - 14.0 °F 74% 30.24 in 10.0 mi Calm Calm - N/A   Mostly Cloudy
7:32 PM 21.2 °F - 14.0 °F 74% 30.26 in 10.0 mi Calm Calm - N/A   Overcast
7:52 PM 21.2 °F - 14.0 °F 74% 30.27 in 10.0 mi Calm Calm - N/A   Overcast
8:12 PM 21.2 °F - 15.8 °F 80% 30.28 in 7.0 mi Calm Calm - N/A Snow Light Snow
8:33 PM 19.4 °F - 14.0 °F 80% 30.29 in 5.0 mi Calm Calm - N/A Snow Light Snow
8:53 PM 19.4 °F - 12.2 °F 74% 30.30 in 7.0 mi Calm Calm - N/A Snow Light Snow
9:13 PM 19.4 °F - 12.2 °F 74% 30.31 in 10.0 mi Calm Calm - N/A Snow Light Snow
9:33 PM 17.6 °F - 10.4 °F 73% 30.32 in 10.0 mi Calm Calm - N/A   Scattered Clouds
9:53 PM 15.8 °F - 10.4 °F 79% 30.33 in 10.0 mi Calm Calm - N/A   Clear
10:13 PM 14.0 °F - 10.4 °F 86% 30.34 in 10.0 mi Calm Calm - N/A   Clear
10:33 PM 12.2 °F - 8.6 °F 85% 30.34 in 10.0 mi Calm Calm - N/A   Clear
10:53 PM 10.4 °F - 8.6 °F 92% 30.35 in 10.0 mi Calm Calm - N/A   Clear
11:13 PM 10.4 °F - 6.8 °F 85% 30.34 in 10.0 mi Calm Calm - N/A   Clear
11:33 PM 10.4 °F - 6.8 °F 85% 30.35 in 10.0 mi Calm Calm - N/A   Clear
11:54 PM 8.6 °F - 6.8 °F 92% 30.35 in 10.0 mi Calm Calm - N/A   Clear